| time (UTC) | temp F | wind direction | speed knots | gust knots | rain 1hr in | rain 24hr in | rain mn in | humidity % | barometer mb |
| 20260505120106 | 55 | 237 | 0.9 | 2.6 | 0.00 | 0.00 | 0.00 | ||
| 20260505113026 | 55 | 245 | 0.0 | 3.5 | 0.00 | 0.00 | 0.00 | ||
| 20260505100100 | 55 | 232 | 0.9 | 3.5 | 0.00 | 0.00 | 0.00 | ||
| 20260505093035 | 55 | 250 | 0.0 | 2.6 | 0.00 | 0.00 | 0.00 | ||
| 20260505083044 | 55 | 208 | 0.0 | 1.7 | 0.00 | 0.00 | 0.00 | ||
| 20260505080053 | 55 | 212 | 0.0 | 6.1 | 0.00 | 0.00 | 0.00 | ||
| 20260505073034 | 55 | 161 | 0.9 | 3.5 | 0.00 | 0.00 | 0.00 | ||
| 20260505063046 | 56 | 263 | 0.9 | 4.3 | 0.00 | 0.00 | 0.00 | ||
| 20260505060056 | 56 | 268 | 0.9 | 5.2 | 0.00 | 0.00 | 0.00 | ||
| 20260505053053 | 56 | 265 | 0.0 | 4.3 | 0.00 | 0.00 | 0.00 | ||
| 20260505040106 | 56 | 252 | 0.9 | 7.0 | 0.00 | 0.00 | 0.00 | ||
| 20260505030058 | 57 | 249 | 1.7 | 4.3 | 0.00 | 0.00 | 0.00 | ||
| 20260505023038 | 57 | 262 | 1.7 | 6.1 | 0.00 | 0.00 | 0.00 | ||
| 20260505020109 | 58 | 230 | 0.9 | 7.0 | 0.00 | 0.00 | 0.00 | ||
| 20260505013050 | 58 | 277 | 1.7 | 7.0 | 0.00 | 0.00 | 0.00 | ||
| 20260505010100 | 59 | 252 | 0.9 | 7.8 | 0.00 | 0.00 | 0.00 | ||
| 20260505003041 | 60 | 246 | 1.7 | 7.8 | 0.00 | 0.00 | 0.00 | ||
| 20260505000046 | 62 | 242 | 1.7 | 6.1 | 0.00 | 0.00 | 0.00 | ||
| 20260504233046 | 65 | 300 | 1.7 | 7.0 | 0.00 | 0.00 | 0.00 | ||
| 20260504223043 | 67 | 238 | 1.7 | 7.0 | 0.00 | 0.00 | 0.00 | ||
| 20260504220055 | 67 | 4 | 1.7 | 10.4 | 0.00 | 0.00 | 0.00 | ||
| 20260504213036 | 68 | 296 | 0.9 | 5.2 | 0.00 | 0.00 | 0.00 | ||
| 20260504203049 | 66 | 347 | 2.6 | 7.0 | 0.00 | 0.00 | 0.00 | ||
| 20260504200100 | 66 | 212 | 0.9 | 6.1 | 0.00 | 0.00 | 0.00 | ||
| 20260504193041 | 65 | 249 | 3.5 | 6.1 | 0.00 | 0.00 | 0.00 | ||
| 20260504190105 | 65 | 327 | 0.9 | 5.2 | 0.00 | 0.00 | 0.00 | ||
| 20260504183047 | 65 | 331 | 0.0 | 5.2 | 0.00 | 0.00 | 0.00 | ||
| 20260504173043 | 62 | 230 | 1.7 | 5.2 | 0.00 | 0.00 | 0.00 | ||
| 20260504170113 | 60 | 249 | 0.9 | 4.3 | 0.00 | 0.00 | 0.00 |